To NAV CANADA Home Page Login to a new session Search on AWWS site Feedback and Comments Disclaimer Vers la page française équivalente Tips FAQ What's new on the site To the Forecasts and Observations / NOTAM section To "File a Flight Plan" website Publications and other links Update of the User's profile FIC Telephone Numbers My Weather Data Folder Route Weather Data Regional Weather Data Local Weather Data To the Forecasts and Observations / NOTAM section
Request Generated 08/01/2015 at 03:27:49 UTC . Weather information available at that time is displayed.

METAR/TAF

PANGNIRTUNG/NU    (show WxCam)

LWIS CYXP 010300Z AUTO 08010G20KT 11/04 A2984=
LWIS CYXP 010200Z AUTO 08011G23KT 040V120 12/04 A2985=
LWIS CYXP 010100Z AUTO 10010G17KT 040V120 11/04 A2986=

*** REMARK        : Forecast period has ended; this was the last TAF issued
*** REMARQUE : La période de prévision est échue; ceci était le dernier TAF qui a été émis
TAF CYXP 311838Z 3119/3122 11012G22KT P6SM OVC030 TEMPO 3119/3122
P6SM -RA
RMK NXT FCST WILL BE ISSUED AT 011545Z=
Your time UTC time
Weather data provided by Environment Canada and NAV CANADA